Location: Zagreb
(45.8000°N, 16.0000°E)
Time: 20:11:11
(UTC+01:00)

YUBILEINY - Pass Details

Date: 03 November 2020
Orbit: 1478 x 1509 km, 82.5° (Epoch: 01 December)

Event Time Altitude Azimuth Distance (km) Brightness Sun altitude
Rises 20:34:46 0° 351° (N) 4,611 ? -41.0°
Reaches altitude 10° 20:37:42 10° 355° (N) 3,627 ? -41.4°
Enters shadow 20:41:42 31° 5° (N) 2,389 ? -42.1°
